Regional Weather Roundup
Issued by NWS

Home | Current Version | Previous Version | Graphics & Text | Print | Product List | Glossary On
Versions: 1 2 3 4 5 6 7 8 9 10 11 12 13 14 15 16 17 18 19 20 21 22 23 24 25 26 27 28 29 30 31 32 33 34 35 36 37 38 39 40 41 42 43 44 45 46 47 48 49 50
804
ASUS43 KOAX 192002
RWRNE

WEATHER ROUNDUP FOR NEBRASKA
NATIONAL WEATHER SERVICE OMAHA NE
200 PM CST SUN FEB 19 2017

NOTES: SATELLITE DATA IS BEING USED TO AUGMENT CLOUD COVER ABOVE
       12000 FEET.
       "FAIR" INDICATES FEW OR NO CLOUDS BELOW 12,000 FEET WITH NO
       SIGNIFICANT WEATHER AND/OR OBSTRUCTIONS TO VISIBILITY.

  * THESE STATIONS DO NOT REPORT WEATHER SUCH AS RAIN...SNOW OR FOG.

NEZ001>004-019>022-054>056-192100-
NEBRASKA PANHANDLE

CITY           SKY/WX    TMP DP  RH WIND       PRES   REMARKS
SCOTTSBLUFF    CLOUDY    58  33  39 CALM      29.60F
ALLIANCE       CLOUDY    61  32  33 SE6       29.60F
CHADRON        MOSUNNY   65  31  28 S14G24    29.55F
KIMBALL        CLOUDY    62  32  32 SE13      29.63F
SIDNEY         CLOUDY    60  27  28 S14       29.64S
$$

NEZ057>060-069>072-079>082-192100-
SOUTHWEST NEBRASKA

CITY           SKY/WX    TMP DP  RH WIND       PRES   REMARKS
NORTH PLATTE   CLOUDY    62  42  47 S15G25    29.69F
IMPERIAL       CLOUDY    59  37  44 SE10      29.66F
LEXINGTON      MOSUNNY   66  44  44 S25G32    29.69F
MCCOOK         PTSUNNY   73  42  32 S23G32    29.68F
OGALLALA       CLOUDY    64  34  33 S12       29.64F
$$

NEZ005>010-023>029-035>040-094-192100-
NORTH CENTRAL NEBRASKA

CITY           SKY/WX    TMP DP  RH WIND       PRES   REMARKS
VALENTINE      CLOUDY    64  35  34 S16G22    29.59F
AINSWORTH      MOSUNNY   67  41  39 S22G29    29.62S
BROKEN BOW     CLOUDY    68  45  43 S28G38    29.68S
O`NEILL        PTSUNNY   68  45  42 S21G30    29.67F
ORD            CLOUDY    69  43  38 S22G29    29.69F
THEDFORD       MOSUNNY   65  38  37 S18G25    29.65F
$$

NEZ041-046>049-061>064-073>077-083>087-192100-
SOUTH CENTRAL NEBRASKA

CITY           SKY/WX    TMP DP  RH WIND       PRES   REMARKS
GRAND ISLAND   MOSUNNY   71  47  42 S24G31    29.74F
AURORA         CLOUDY    70  47  43 S18G30    29.75F
HASTINGS       CLOUDY    69  46  43 S18G26    29.76F
HEBRON         MOSUNNY   69  51  53 S22       29.81S
HOLDREGE       MOSUNNY   69  43  38 S18G25    29.72F
KEARNEY *      MOSUNNY   72  43  35 S25G32    29.72F
YORK           CLOUDY    70  46  43 S22G31    29.77F
$$

NEZ011>018-030>034-042>045-192100-
NORTHEAST NEBRASKA

CITY           SKY/WX    TMP DP  RH WIND       PRES   REMARKS
NORFOLK        PTSUNNY   66  47  50 S23G31    29.74F
ALBION         MOSUNNY   68  49  50 S17G23    29.72F
BLAIR          MOSUNNY   68  50  53 S20       29.82F
FREMONT        PTSUNNY   67  48  50 S17       29.80F
TEKAMAH        PTSUNNY   68  51  54 S20       29.80F
WAYNE          CLOUDY    65  51  61 S21       29.75F
$$

NEZ050>053-065>068-078-088>093-192100-
SOUTHEAST NEBRASKA

CITY           SKY/WX    TMP DP  RH WIND       PRES   REMARKS
LINCOLN        MOSUNNY   72  49  44 S23       29.80F
OMAHA EPPLEY   CLOUDY    68  49  50 SE23      29.83S
BEATRICE       MOSUNNY   71  52  51 S15G22    29.82F
FALLS CITY     CLOUDY    70  53  54 S16G24    29.86F
NEBRASKA CITY  MOSUNNY   70  43  38 S21G29    29.84F
PLATTSMOUTH    MOSUNNY   69  44  39 S21       29.84F
$$

NEZ044-045-051>053-067-192100-
OMAHA AREA

CITY           SKY/WX    TMP DP  RH WIND       PRES   REMARKS
OMAHA EPPLEY   CLOUDY    68  49  50 SE23      29.83S
BLAIR          MOSUNNY   68  50  53 S20       29.82F
FREMONT        PTSUNNY   67  48  50 S17       29.80F
MILLARD        MOSUNNY   71  51  50 S16       29.82F
OFFUTT AFB     MOSUNNY   69  51  52 S14       29.83F
PLATTSMOUTH    MOSUNNY   69  44  39 S21       29.84F
WAHOO          FAIR      69  47  46 S18       29.80F
$$




USA.gov is the U.S. government's official web portal to all federal, state and local government web resources and services.